[[{"header":{"parameterUnit":"m.s-1","parameterCategory":1,"la1":30.2991,"la2":30.254,"lo1":-89.0895,"lo2":-89.0444,"dy":0.0017,"dx":0.0017,"nx":28,"ny":28,"refTime":"2024-07-24T09:00:00:Z","depth":0,"parameterNumber":2,"parameterNumberName":"U-component_of_WINDS"},"data":[0,0,0,0,0,0,0,0,0,0,0,0,0,0,0,0,0,0,0,0,0,0,0,0,0,0,0,0,0,0,0,0,0,0,0,0,0,0,0,0,0,0,0,0,0,0,0,0,0,0,0,0,0,0,0,0,0,0,-0.043,-0.0431,0,-0.0451,-0.0451,-0.0452,-0.0446,-0.0446,-0.0445,-0.0445,-0.0468,-0.0469,-0.047,0,0,0,0,0,0,0,0,0,0,0,0,0,-0.0385,-0.0386,-0.043,-0.0431,-0.0431,-0.0451,-0.0451,-0.0452,-0.0446,-0.0446,-0.0445,-0.0445,-0.0467,-0.0469,-0.047,0,0,0,0,0,0,0,0,0,0,0,0,0,-0.0405,-0.0386,-0.043,-0.0431,-0.0431,-0.0451,-0.0451,-0.0452,-0.0446,-0.0446,-0.0445,-0.0445,-0.0467,-0.0468,-0.047,-0.0492,0,0,-0.0474,-0.0475,0,0,0,0,0,0,0,0,-0.0404,-0.0407,-0.043,-0.0431,-0.0431,-0.0445,-0.0444,-0.0465,-0.0447,-0.0441,-0.0445,-0.0444,-0.0461,-0.0463,-0.0468,-0.0493,-0.0494,-0.0475,-0.0475,-0.0476,-0.0477,0,0,0,0,0,0,0,-0.0403,-0.0406,-0.0439,-0.0431,-0.0431,-0.0429,-0.0432,-0.0448,-0.0454,-0.0441,-0.0441,-0.0443,-0.0461,-0.0467,-0.0469,-0.0494,-0.0475,-0.0476,-0.0477,-0.0477,-0.0535,-0.0535,0,0,0,0,0,0,-0.0401,-0.0405,-0.0438,-0.0439,-0.0416,-0.0431,-0.0433,-0.0441,-0.0454,-0.0455,-0.0444,-0.0443,-0.0465,-0.0467,-0.0469,-0.0494,-0.0476,-0.0478,-0.0478,-0.0534,-0.0535,-0.0535,0,0,0,0,0,0,-0.04,-0.0404,-0.0437,-0.0422,-0.0426,-0.0432,-0.0442,-0.0442,-0.0448,-0.0456,-0.0457,-0.0449,-0.0464,-0.0467,-0.0485,-0.0495,-0.0478,-0.048,-0.0533,-0.0534,-0.0535,-0.0545,0,0,0,0,0,0,-0.0399,-0.0404,-0.0413,-0.0422,-0.0427,-0.0453,-0.0442,-0.0443,-0.045,-0.045,-0.0461,-0.0462,-0.0464,-0.0483,-0.0487,-0.0497,-0.0481,-0.0532,-0.0534,-0.0535,-0.0544,-0.0546,-0.0548,0,0,0,0,0,-0.0397,-0.0415,-0.0413,-0.0417,-0.0438,-0.0454,-0.0456,-0.0458,-0.0451,-0.046,-0.0464,-0.0462,-0.0493,-0.0485,-0.0489,-0.05,-0.0532,-0.0533,-0.0535,-0.0543,-0.0546,-0.0548,0,0,0,0,0,0,-0.0408,-0.0417,-0.0414,-0.0436,-0.0444,-0.0453,-0.0464,-0.0461,-0.0472,-0.0471,-0.0472,-0.0475,-0.0493,-0.0498,-0.0489,-0.052,-0.0511,-0.0514,-0.0516,-0.0519,-0.0521,-0.0519,-0.0482,0,0,0,0,0,-0.0413,-0.0425,-0.0432,-0.045,-0.0454,-0.0458,-0.0465,-0.0465,-0.0474,-0.0478,-0.0484,-0.0492,-0.0504,-0.0512,-0.0523,-0.0544,-0.0546,-0.0553,-0.0555,-0.0557,-0.0559,-0.0568,-0.0571,-0.054,-0.054,-0.054,0,0,-0.0423,-0.0429,-0.0437,-0.0452,-0.0459,-0.047,-0.0461,-0.0475,-0.0484,-0.048,-0.0497,-0.0501,-0.0511,-0.053,-0.0539,-0.0535,-0.0567,-0.0558,-0.056,-0.0561,-0.057,-0.0573,-0.0575,-0.0541,-0.0541,-0.0541,0,0,-0.0447,-0.0454,-0.0469,-0.0474,-0.0483,-0.0485,-0.0489,-0.0498,-0.05,-0.0517,-0.0513,-0.0524,-0.0544,-0.055,-0.0556,-0.058,-0.0577,-0.0583,-0.0595,-0.0604,-0.0606,-0.0608,-0.0616,-0.0618,-0.0585,-0.0585,-0.0585,0,-0.0459,-0.0477,-0.0477,-0.049,-0.0496,-0.0492,-0.0506,-0.0512,-0.0525,-0.0529,-0.0524,-0.0548,-0.0554,-0.0574,-0.0579,-0.0584,-0.0587,-0.0583,-0.0606,-0.0608,-0.061,-0.0617,-0.062,-0.0586,-0.0586,-0.0586,-0.0586,0,-0.049,-0.0503,-0.0514,-0.0524,-0.0532,-0.0546,-0.0547,-0.0554,-0.0553,-0.0555,-0.0571,-0.0578,-0.059,-0.0594,-0.0594,-0.0613,-0.061,-0.0605,-0.0597,-0.0614,-0.062,-0.0623,-0.0587,-0.0587,-0.0586,-0.0586,0,0,-0.0524,-0.0532,-0.0537,-0.054,-0.0548,-0.0558,-0.057,-0.0581,-0.0586,-0.0595,-0.0605,-0.0621,-0.0616,-0.0622,-0.0622,-0.063,-0.0646,-0.0624,-0.0625,-0.0628,-0.0666,-0.0669,-0.0672,-0.0644,-0.0645,-0.0645,-0.0665,0,-0.0549,-0.0571,-0.057,-0.0591,-0.0601,-0.0595,-0.0606,-0.0612,-0.0614,-0.0623,-0.0625,-0.0635,-0.0629,-0.0632,-0.064,-0.0643,-0.0654,-0.0641,-0.0653,-0.0654,-0.0651,-0.0676,-0.068,-0.0698,-0.0667,-0.0668,-0.0668,0,-0.0582,-0.0589,-0.061,-0.0614,-0.0619,-0.0628,-0.0636,-0.0645,-0.0651,-0.0651,-0.0657,-0.0655,-0.0667,-0.0657,-0.0673,-0.0664,-0.0669,-0.067,-0.0671,-0.0673,-0.0662,-0.0677,-0.0704,-0.0707,-0.0672,-0.0672,-0.0672,0,-0.0603,-0.0618,-0.0632,-0.0636,-0.0641,-0.0648,-0.0651,-0.0656,-0.0661,-0.0668,-0.0671,-0.068,-0.0684,-0.069,-0.069,-0.0683,-0.0705,-0.0696,-0.0706,-0.0706,-0.0711,-0.0711,-0.0739,-0.0714,-0.0714,-0.0714,-0.0714,0,-0.063,-0.0644,-0.0641,-0.065,-0.0664,-0.0662,-0.0676,-0.0677,-0.0681,-0.069,-0.0686,-0.0694,-0.0693,-0.07,-0.07,-0.0712,-0.0715,-0.0715,-0.0715,-0.0715,-0.0715,-0.0718,-0.0717,-0.0715,-0.0715,-0.0715,-0.0715,0,-0.0657,-0.0657,-0.0671,-0.0674,-0.0675,-0.0685,-0.0688,-0.0695,-0.0696,-0.0706,-0.0709,-0.0709,-0.0718,-0.0718,-0.0728,-0.0727,-0.0742,-0.0741,-0.074,-0.074,-0.0748,-0.0747,-0.078,-0.0783,-0.0757,-0.0757,-0.0757,0,-0.0675,-0.0685,-0.0688,-0.0693,-0.0695,-0.0704,-0.0708,-0.0706,-0.0711,-0.0716,-0.0723,-0.0731,-0.0737,-0.0751,-0.0752,-0.0759,-0.0758,-0.0768,-0.0759,-0.0758,-0.0757,-0.0756,-0.0756,-0.077,-0.0771,-0.0771,-0.0771,0,-0.0706,-0.0704,-0.0712,-0.0717,-0.0723,-0.0728,-0.0732,-0.0737,-0.0734,-0.074,-0.0748,-0.0753,-0.0762,-0.0769,-0.0775,-0.0778,-0.0774,-0.0774,-0.0776,-0.0777,-0.0776,-0.0775,-0.0745,-0.0773,-0.0773,-0.0773,-0.0773,-0.0773,-0.0729,-0.0736,-0.0738,-0.0746,-0.0748,-0.0752,-0.0758,-0.0759,-0.0765,-0.0772,-0.077,-0.0778,-0.0781,-0.0789,-0.0792,-0.0798,-0.0794,-0.0798,-0.0799,-0.08,-0.08,-0.0774,-0.0799,-0.0799,-0.0799,-0.0799,-0.0799,0,-0.0759,-0.0759,-0.0766,-0.0771,-0.0776,-0.0771,-0.0775,-0.0779,-0.0787,-0.079,-0.0795,-0.0803,-0.0809,-0.081,-0.0816,-0.0821,-0.0819,-0.0822,-0.0822,-0.0822,-0.0804,-0.0801,-0.0823,-0.0823,-0.0823,-0.0823,-0.0823,-0.0823,-0.0775,-0.0787,-0.0785,-0.0797,-0.0797,-0.0805,-0.0808,-0.081,-0.0812,-0.0821,-0.0826,-0.0826,-0.0828,-0.0833,-0.0838,-0.0838,-0.084,-0.0844,-0.0843,-0.0826,-0.0824,-0.0821,-0.0818,-0.0845,-0.0845,-0.0861,-0.0861,-0.0861]},{"header":{"parameterUnit":"m.s-1","parameterCategory":1,"la1":30.2991,"la2":30.254,"lo1":-89.0895,"lo2":-89.0444,"dy":0.0017,"dx":0.0017,"nx":28,"ny":28,"refTime":"2024-07-24T09:00:00:Z","depth":0,"parameterNumber":3,"parameterNumberName":"V-component_of_WINDS"},"data":[0,0,0,0,0,0,0,0,0,0,0,0,0,0,0,0,0,0,0,0,0,0,0,0,0,0,0,0,0,0,0,0,0,0,0,0,0,0,0,0,0,0,0,0,0,0,0,0,0,0,0,0,0,0,0,0,0,0,-1.6416,-1.6416,0,-1.6409,-1.6409,-1.6409,-1.6395,-1.6395,-1.6394,-1.6394,-1.6384,-1.6384,-1.6384,0,0,0,0,0,0,0,0,0,0,0,0,0,-1.6414,-1.6414,-1.6416,-1.6416,-1.6416,-1.6409,-1.6409,-1.6409,-1.6395,-1.6395,-1.6394,-1.6394,-1.6384,-1.6384,-1.6384,0,0,0,0,0,0,0,0,0,0,0,0,0,-1.6412,-1.6414,-1.6416,-1.6408,-1.6408,-1.6409,-1.6409,-1.6409,-1.6395,-1.6395,-1.6394,-1.6394,-1.6384,-1.6384,-1.6384,-1.6392,0,0,-1.6384,-1.6384,0,0,0,0,0,0,0,0,-1.6412,-1.6412,-1.641,-1.6409,-1.6408,-1.6403,-1.6405,-1.6403,-1.6395,-1.64,-1.6394,-1.6394,-1.6391,-1.639,-1.639,-1.6392,-1.6392,-1.6384,-1.6384,-1.6384,-1.6384,0,0,0,0,0,0,0,-1.6412,-1.6412,-1.6413,-1.641,-1.6409,-1.6404,-1.6403,-1.6404,-1.6397,-1.6399,-1.6398,-1.6398,-1.639,-1.639,-1.6389,-1.6391,-1.6384,-1.6384,-1.6384,-1.6384,-1.6397,-1.6398,0,0,0,0,0,0,-1.6414,-1.6412,-1.6414,-1.6413,-1.6409,-1.6404,-1.6403,-1.6405,-1.6397,-1.6396,-1.6398,-1.6397,-1.639,-1.6389,-1.6389,-1.6396,-1.6384,-1.6384,-1.6384,-1.6397,-1.6397,-1.6398,0,0,0,0,0,0,-1.6414,-1.6414,-1.6414,-1.6413,-1.6412,-1.6405,-1.6406,-1.6405,-1.6404,-1.6397,-1.6395,-1.6399,-1.6389,-1.6389,-1.6391,-1.6396,-1.6384,-1.6384,-1.6396,-1.6397,-1.6398,-1.6412,0,0,0,0,0,0,-1.6414,-1.6414,-1.6418,-1.6413,-1.6412,-1.6418,-1.6407,-1.6405,-1.6405,-1.6403,-1.6397,-1.6396,-1.6389,-1.6391,-1.6391,-1.6396,-1.6384,-1.6396,-1.6397,-1.6397,-1.6411,-1.6413,-1.6415,0,0,0,0,0,-1.6414,-1.6423,-1.6419,-1.6419,-1.6417,-1.6418,-1.6418,-1.6411,-1.6405,-1.6408,-1.6403,-1.6396,-1.6395,-1.6392,-1.6391,-1.6396,-1.6396,-1.6397,-1.6397,-1.641,-1.6413,-1.6415,0,0,0,0,0,0,-1.6429,-1.6422,-1.6417,-1.6425,-1.6422,-1.6416,-1.642,-1.6414,-1.6412,-1.6411,-1.6401,-1.64,-1.6403,-1.64,-1.6396,-1.6402,-1.6394,-1.6395,-1.6404,-1.6406,-1.6408,-1.6409,-1.6384,0,0,0,0,0,-1.6433,-1.6436,-1.6429,-1.6436,-1.6435,-1.6428,-1.6428,-1.6422,-1.6419,-1.6418,-1.6412,-1.6408,-1.6407,-1.6406,-1.6405,-1.641,-1.6408,-1.6413,-1.6415,-1.6416,-1.6417,-1.6417,-1.6419,-1.64,-1.64,-1.64,0,0,-1.6442,-1.6439,-1.6441,-1.6439,-1.6436,-1.6437,-1.6427,-1.6429,-1.6429,-1.6418,-1.642,-1.6415,-1.641,-1.6413,-1.6415,-1.6411,-1.6421,-1.6417,-1.6418,-1.6418,-1.6418,-1.642,-1.6422,-1.6401,-1.6401,-1.6401,0,0,-1.6459,-1.6457,-1.6462,-1.6459,-1.6455,-1.645,-1.6451,-1.6445,-1.6442,-1.6443,-1.6434,-1.6433,-1.6432,-1.6428,-1.6426,-1.6438,-1.6431,-1.6437,-1.6447,-1.6447,-1.6449,-1.645,-1.6453,-1.6454,-1.6438,-1.6438,-1.6438,0,-1.647,-1.6473,-1.6465,-1.6467,-1.6466,-1.6455,-1.6459,-1.6457,-1.6452,-1.6451,-1.6446,-1.6443,-1.6438,-1.644,-1.6442,-1.6442,-1.6441,-1.6438,-1.6449,-1.645,-1.6451,-1.6454,-1.6455,-1.6439,-1.6439,-1.6439,-1.6439,0,-1.6486,-1.6487,-1.6492,-1.6487,-1.6486,-1.649,-1.6481,-1.6481,-1.6475,-1.6469,-1.647,-1.6464,-1.646,-1.646,-1.6455,-1.646,-1.6457,-1.6451,-1.6443,-1.6454,-1.6456,-1.6457,-1.644,-1.644,-1.644,-1.6439,0,0,-1.6513,-1.6503,-1.6505,-1.6502,-1.6496,-1.6496,-1.6497,-1.6494,-1.6493,-1.649,-1.649,-1.6487,-1.6481,-1.6478,-1.6472,-1.6472,-1.648,-1.6466,-1.6465,-1.6468,-1.6484,-1.6488,-1.649,-1.6475,-1.6476,-1.6476,-1.6484,0,-1.6528,-1.6531,-1.6523,-1.6527,-1.6527,-1.6516,-1.6517,-1.6512,-1.6507,-1.6505,-1.6498,-1.6496,-1.6489,-1.6487,-1.6487,-1.648,-1.6483,-1.6479,-1.6474,-1.6474,-1.6475,-1.6491,-1.6496,-1.6505,-1.6485,-1.6485,-1.6485,0,-1.6546,-1.6543,-1.6547,-1.6539,-1.6538,-1.654,-1.6535,-1.6534,-1.6527,-1.6523,-1.6519,-1.6511,-1.651,-1.6502,-1.6499,-1.6496,-1.6493,-1.6489,-1.6489,-1.6488,-1.648,-1.649,-1.6507,-1.6508,-1.6487,-1.6487,-1.6487,0,-1.6563,-1.6561,-1.6563,-1.6561,-1.6551,-1.6552,-1.6547,-1.6541,-1.6538,-1.6533,-1.6531,-1.6526,-1.6524,-1.6519,-1.6509,-1.6505,-1.6507,-1.6499,-1.6502,-1.6502,-1.6503,-1.6503,-1.652,-1.6502,-1.6502,-1.6502,-1.6502,0,-1.658,-1.6583,-1.657,-1.6572,-1.6574,-1.6563,-1.6565,-1.656,-1.6553,-1.6552,-1.6542,-1.654,-1.6527,-1.6524,-1.6516,-1.6514,-1.6513,-1.6508,-1.6506,-1.6509,-1.651,-1.6507,-1.6506,-1.6502,-1.6502,-1.6502,-1.6502,0,-1.6601,-1.6593,-1.6594,-1.6584,-1.6582,-1.6583,-1.6574,-1.6574,-1.6567,-1.6565,-1.6564,-1.6553,-1.6548,-1.6538,-1.653,-1.6524,-1.6524,-1.652,-1.6526,-1.6525,-1.6528,-1.6528,-1.6543,-1.6544,-1.6527,-1.6527,-1.6527,0,-1.6612,-1.6614,-1.6604,-1.6603,-1.6599,-1.6597,-1.6594,-1.6584,-1.6581,-1.6572,-1.6573,-1.6567,-1.6562,-1.6555,-1.6545,-1.6538,-1.6534,-1.654,-1.6533,-1.6535,-1.6533,-1.6533,-1.6532,-1.6541,-1.6542,-1.6542,-1.6542,0,-1.6632,-1.6627,-1.6625,-1.662,-1.6617,-1.6613,-1.6607,-1.6606,-1.6594,-1.6591,-1.6587,-1.6583,-1.6574,-1.6568,-1.656,-1.6554,-1.6545,-1.6544,-1.6544,-1.6547,-1.655,-1.6548,-1.653,-1.6544,-1.6544,-1.6544,-1.6543,-1.6543,-1.6648,-1.6648,-1.6641,-1.6637,-1.6632,-1.6627,-1.6626,-1.6618,-1.6615,-1.6608,-1.6601,-1.6596,-1.6587,-1.6575,-1.6569,-1.6564,-1.656,-1.6561,-1.6561,-1.6561,-1.6562,-1.6551,-1.6563,-1.6563,-1.6563,-1.6563,-1.6563,0,-1.6666,-1.6661,-1.6658,-1.6651,-1.6647,-1.664,-1.6633,-1.6631,-1.6627,-1.662,-1.6615,-1.6608,-1.6601,-1.6591,-1.6583,-1.6581,-1.6576,-1.6579,-1.6579,-1.6577,-1.6567,-1.6567,-1.6582,-1.6582,-1.6582,-1.6582,-1.6582,-1.6582,-1.6676,-1.6676,-1.667,-1.6666,-1.666,-1.6656,-1.6652,-1.6647,-1.6641,-1.6634,-1.6629,-1.6622,-1.6612,-1.6604,-1.6597,-1.6593,-1.659,-1.6594,-1.659,-1.658,-1.6578,-1.6576,-1.6576,-1.6594,-1.6594,-1.66,-1.66,-1.66]}]]